Regional Weather Roundup
Issued by NWS Sterling, VA

Home | Current Version | Previous Version | Graphics & Text | Print | Product List | Glossary On
Versions: 1 2 3 4 5 6 7 8 9 10 11 12 13 14 15 16 17 18 19 20 21 22 23 24 25 26 27 28 29 30 31 32 33 34 35 36 37 38 39 40 41 42 43 44 45 46 47 48 49 50
000
ASUS41 KLWX 050410
RWRLWX

REGIONAL WEATHER ROUNDUP
NATIONAL WEATHER SERVICE BALTIMORE MD/WASHINGTON DC
1100 PM EST WED MAR 04 2015

Note: "FAIR" indicates few or no clouds below 12,000 feet
with no significant weather and/or obstructions to visibility.
 TC=TEMPERATURE CELSIUS

 * =Non NWS site. Station does not report precipitation (e.g. rain,
    snow, etc.), thunder, or fog.

DCZ001-MDZ009-015-VAZ040>042-051-053>054-050500-
WASHINGTON METRO

CITY           SKY/WX    TMP DP  RH WIND       PRES   REMARKS
WASHINGTON NAT LGT RAIN  46  42  86 N12       29.97R
DULLES         LGT RAIN  41  39  93 N9        29.96R FOG
ANDREWS AFB    LGT RAIN  43  42  99 N9        29.93R
FT BELVOIR     RAIN      45  45 100 VRB5      29.95R FOG
QUANTICO       RAIN      45  43  93 NE9       29.96R FOG
COLLEGE PARK*  CLOUDY    43  43 100 N3        29.96R
LEESBURG*      LGT RAIN  41  41 100 N7        29.97R
MANASSAS*      CLOUDY    43  43 100 N8        29.95R
GAITHERSBURG*  CLOUDY    41  37  87 NW3       30.00R

$$

MDZ006>007-011-014-050500-
BALTIMORE METRO

CITY           SKY/WX    TMP DP  RH WIND       PRES   REMARKS
BWI AIRPORT    LGT RAIN  41  40  96 N3        29.95R FOG
MD SCIENCE CTR   N/A     42  40  92 MISG      29.96R
MARTIN STATE   LGT RAIN  37  37 100 CALM      29.97S VSB 1/2
ANNAPOLIS      LGT RAIN  40  39  97 N6        29.94R FOG
FORT MEADE*    CLOUDY    37  37 100 CALM      29.98R VSB 1

$$

MDZ012-015-019>023-050500-
MARYLAND EASTERN SHORE

CITY           SKY/WX    TMP DP  RH WIND       PRES   REMARKS
OCEAN CITY     FOG       42  42 100 CALM      29.91S VSB 1/2
SALISBURY      FOG       49  45  86 NW7       29.92R VSB 1/2
BAY BRIDGE AP* LGT RAIN  36  36 100 N8        29.95R
CAMBRIDGE*     CLOUDY    45  43  93 CALM      29.91S
EASTON*        RAIN      44  44 100 CALM      29.96R VSB 1

$$

MDZ017>025-050500-
SOUTHERN MARYLAND

CITY           SKY/WX    TMP DP  RH WIND       PRES   REMARKS
PATUXENT RIVER LGT RAIN  45  44  97 NW3       29.91R VSB 1/2
ST INIGOES     LGT RAIN  44  40  85 CALM      29.91S FOG
LEONARDTOWN*   CLOUDY    46  45  93 CALM      29.93S VSB 1

$$

MDZ003>005-050500-
NORTH CENTRAL MARYLAND

CITY           SKY/WX    TMP DP  RH WIND       PRES   REMARKS
FREDERICK*     LGT RAIN  41  36  81 CALM      29.99S
HAGERSTOWN APT LGT RAIN  39  34  82 NW8       29.97R
WESTMINSTER*   RAIN      39  37  93 N3        29.95S

$$

MDZ501>502-050500-
WESTERN MARYLAND

CITY           SKY/WX    TMP DP  RH WIND       PRES   REMARKS
OAKLAND*         N/A     28 N/A N/A NW8       29.93R FOG     WCI  20
CUMBERLAND*    CLOUDY    37  32  81 N3        30.03S

$$

VAZ025>031-050500-
SHENANDOAH VALLEY

CITY           SKY/WX    TMP DP  RH WIND       PRES   REMARKS
WINCHESTER*    RAIN      43  37  81 N7        29.97S
FRONT ROYAL*   CLOUDY    41  41 100 E3        29.95S
LURAY*         RAIN      45  45 100 NE13      29.93S
NEW MARKET*    CLOUDY    42  42 100 NE6       29.93S
STAUNTON*      LGT RAIN  44  43  96 CALM      29.94S VSB 3/4
WAYNESBORO*    CLOUDY    46  46 100 W3        29.93R

$$

WVZ021-048>050-054>055-050500-
EASTERN WEST VIRGINIA PANHANDLE

CITY           SKY/WX    TMP DP  RH WIND       PRES   REMARKS
MARTINSBURG    LGT RAIN  41  37  86 N9        29.97R
PETERSBURG*    NOT AVBL

$$

VAZ036>039-050-050500-
CENTRAL FOOTHILLS

CITY           SKY/WX    TMP DP  RH WIND       PRES   REMARKS
CHARLOTTESVILL LGT RAIN  46  45  96 CALM      29.92R VSB 1/2
CULPEPER*      RAIN      45  45 100 N3        29.95R
ORANGE*        HVY RAIN  46  46 100 N8        29.96R
GORDONSVILLE*  CLOUDY    42  41  99 CALM      29.93R FOG
WARRENTON*     RAIN      45  45 100 N7        29.95R

$$

VAZ055>057-050500-
NORTH AND CENTRAL PIEDMONT

CITY           SKY/WX    TMP DP  RH WIND       PRES   REMARKS
FREDERICKSBRG* HVY RAIN  50  50 100 N7        29.93R
STAFFORD*      RAIN      46  32  58 N10G16    29.98R

$$

NCZ024-NYZ072-PAZ021-071-VAZ022-071-050500-
OTHER REGIONAL OBSERVATIONS

CITY           SKY/WX    TMP DP  RH WIND       PRES   REMARKS
NEW YORK CITY  LGT RAIN  41  38  89 W9        29.94R FOG
PHILADELPHIA   LGT RAIN  41  40  96 NW8       29.94S FOG
PITTSBURGH     LGT SNOW  29  27  92 W8        30.05R VSB 1   WCI  21
ROANOKE        LGT RAIN  46  45  96 CALM      29.95R FOG
RICHMOND       LGT RAIN  53  51  93 N3        29.92R FOG
RALEIGH        MOCLDY    66  53  63 SW14      29.89R

$$

ANZ530>537-050500-
MARINE OBSERVATIONS

STATION/POSITION TIME  TEMP    WIND        PRES
                       AIR SEA DIR/SP/G
                 (UTC) (F)     (DEG/KT/KT) (MB)
THOMAS PT LIGHT  0400   40 32  350/ 11/ 11 1014.9R
BALT KEY BRIDGE  0300   41     320/  3/  4 1014.1R
COVE POINT       0300   36     350/ 12/ 13 1012.5S
LEWISETTA        0300   43 34     CALM     1012.2R
SOLOMONS ISLAND  0300      34                N/A

$$




USA.gov is the U.S. government's official web portal to all federal, state and local government web resources and services.